Wind_Speed
14 14 13 13 14 15 15 15 16 16 16 17 18 19 20 19 19 19 19 18 17 17 18 17 17 18 18 18 18 16 16 15 14 13 13 12 12 11 11 10 9 9 8
14 14 13 13 14 15 15 16 16 17 18 18 18 19 21 21 21 21 21 20 20 19 20 20 20 20 20 20 20 19 18 18 17 16 15 14 14 13 12 12 11 10 9
14 14 13 13 13 15 15 16 17 17 18 18 18 19 21 22 22 22 22 22 22 21 21 21 22 21 21 21 21 21 21 20 20 19 18 17 16 15 14 13 13 12 10
13 13 13 13 14 15 16 16 17 17 18 18 18 19 20 21 22 23 24 24 23 23 23 23 23 22 21 22 23 23 23 23 22 22 21 20 18 17 16 15 15 14 13
13 13 14 14 14 15 16 16 17 17 18 18 19 19 20 22 23 23 24 25 25 25 24 25 25 24 23 23 24 24 24 25 24 24 23 22 21 20 19 18 17 16 15
12 13 14 14 15 15 16 16 17 18 18 18 19 19 19 21 23 24 25 26 26 27 27 27 27 26 25 26 26 26 25 26 26 26 25 25 24 23 22 21 20 19 18
12 12 13 13 14 15 16 17 17 17 17 18 19 20 20 20 22 24 25 26 27 28 29 28 28 27 26 26 27 28 28 28 28 28 28 27 27 26 25 24 23 22 21
11 11 12 13 13 14 14 15 16 16 17 18 19 20 20 21 21 23 24 25 27 27 29 29 29 29 29 28 29 29 29 29 30 29 30 30 29 29 28 27 26 25 24
9 10 11 12 13 13 13 14 15 15 16 17 18 19 20 21 21 22 24 26 27 28 29 31 31 31 31 31 31 31 32 31 31 32 32 32 32 32 31 30 29 28 27
8 9 10 11 12 12 13 13 14 15 16 17 18 19 20 21 22 22 24 25 27 28 29 29 31 33 33 32 33 33 34 34 34 33 34 35 35 35 35 34 32 31 31
7 7 8 9 11 11 12 12 13 14 15 16 17 18 20 21 22 23 24 25 27 27 29 30 31 33 34 34 34 34 35 36 37 37 37 37 37 37 37 36 36 35 34
6 7 8 8 10 10 11 11 12 13 14 15 16 18 19 21 22 23 24 25 27 27 28 30 31 32 34 35 36 35 37 38 39 39 39 39 39 39 39 39 38 37 37
6 6 7 8 8 9 9 10 11 12 14 15 16 17 18 19 21 23 24 26 27 28 29 30 31 32 33 35 36 37 38 39 40 41 42 42 42 41 42 41 40 40 39
6 7 8 8 8 9 9 10 11 12 13 14 15 17 18 19 20 21 23 25 26 27 28 30 31 32 33 35 35 37 38 39 41 42 43 44 44 43 44 44 43 42 41
7 7 8 8 9 10 11 12 12 13 13 14 15 16 17 19 20 21 22 24 26 27 29 30 31 32 34 35 36 37 37 39 40 41 44 45 45 45 44 46 46 44 43
7 8 9 9 10 10 11 12 12 13 13 14 15 16 17 18 19 21 22 24 25 27 29 30 31 32 33 35 36 37 38 39 41 41 42 44 46 46 46 45 47 47 45
8 9 10 11 11 12 13 13 13 13 14 15 16 16 17 18 19 21 22 24 25 27 28 30 31 32 34 35 36 37 38 40 41 42 43 44 45 47 47 47 47 48 48
9 10 11 12 12 13 14 15 15 15 15 16 16 17 18 19 20 22 23 24 25 26 28 30 32 33 34 35 36 37 38 40 42 43 43 44 45 47 48 48 49 49 49
11 11 12 13 13 14 15 16 16 16 17 18 18 19 19 20 21 22 23 24 25 27 28 30 32 34 35 36 37 38 38 39 41 43 44 45 46 47 48 49 49 50 50
12 13 13 14 14 15 16 16 17 17 18 19 19 20 20 21 22 22 23 24 25 27 28 29 31 33 35 36 37 38 39 40 41 43 45 46 47 48 49 50 50 51 52
13 14 15 15 16 16 17 18 18 19 19 20 20 21 21 22 22 23 24 24 25 26 28 29 30 31 33 35 36 37 39 40 42 43 45 46 47 48 49 51 52 52 53
15 15 16 17 17 17 18 19 20 20 20 21 21 22 22 23 23 24 24 25 25 26 28 29 30 30 31 33 35 36 38 40 42 43 45 46 47 48 49 51 51 52 53
16 17 18 18 19 19 20 20 21 21 22 22 23 23 24 24 24 25 25 25 26 27 28 29 29 30 31 32 34 35 37 40 41 43 45 46 47 48 49 50 52 53 53
18 19 19 20 20 21 21 22 22 22 23 24 24 25 25 25 26 26 26 26 27 27 28 28 29 30 31 32 33 34 36 38 40 41 44 45 47 48 49 50 51 52 53
20 20 21 22 22 22 22 23 23 24 24 25 26 26 26 27 27 27 27 28 28 28 28 29 29 30 31 32 33 34 35 36 37 39 41 42 44 46 47 49 50 51 52
21 22 22 23 23 24 24 24 25 25 26 26 27 27 27 28 28 28 28 28 28 29 29 29 29 30 31 32 32 33 34 35 36 37 39 40 41 44 45 46 48 49 50
Wind_Direction
260 257 254 254 253 254 253 253 248 249 243 241 239 236 234 235 232 230 230 231 231 232 232 231 228 222 220 219 218 217 217 215 212 209 207 204 201 198 195 190 186 181 175
257 258 258 257 257 256 257 254 254 252 248 245 241 239 239 237 236 234 234 233 233 235 234 234 234 228 222 221 221 220 220 219 218 215 214 211 208 206 205 203 200 196 190
257 258 259 258 260 260 258 257 255 254 253 252 247 244 242 239 237 237 238 236 235 237 238 239 237 236 230 225 223 223 223 222 222 220 218 217 215 213 213 212 210 208 204
261 263 261 260 263 263 262 260 259 259 258 256 253 249 245 240 238 240 240 239 238 239 240 241 238 238 237 233 229 226 226 226 225 224 222 220 219 218 218 217 217 215 213
264 266 264 261 263 265 263 261 260 260 259 256 255 254 249 243 241 242 241 240 241 240 241 242 239 239 240 239 234 230 228 228 227 226 226 225 223 222 221 222 221 221 220
266 269 268 267 267 266 265 263 262 262 260 257 255 254 253 250 246 246 244 243 244 243 243 243 241 240 242 243 239 234 231 230 228 228 228 227 226 225 224 224 224 224 224
271 271 269 269 270 270 267 265 265 262 259 259 258 257 255 253 251 249 249 247 246 245 244 243 243 243 244 243 240 239 237 234 230 229 229 229 229 228 227 226 226 227 227
274 273 273 271 271 271 270 268 265 262 260 259 259 258 257 257 254 252 250 248 248 247 245 244 245 245 246 244 241 241 241 237 232 231 231 231 231 230 230 229 229 228 229
277 277 276 276 275 273 273 273 269 267 265 264 262 259 257 257 257 255 252 250 250 250 248 247 246 245 246 246 244 243 242 241 237 234 234 233 233 232 231 230 230 230 230
284 283 280 279 278 278 277 277 274 271 269 267 265 262 260 258 257 256 255 253 252 252 250 249 247 246 246 246 246 245 243 242 241 238 238 237 236 235 235 234 233 232 231
294 294 289 287 285 284 282 281 277 275 273 271 268 265 262 261 259 258 257 256 254 252 251 251 250 249 248 248 248 248 246 244 242 241 240 240 239 237 236 235 236 235 233
311 310 304 297 293 292 291 288 285 282 280 277 273 270 266 264 263 261 259 258 258 256 253 251 250 250 249 249 249 249 247 245 244 243 242 241 242 241 239 237 236 236 235
323 322 319 314 308 303 299 296 294 290 286 282 278 275 271 268 266 264 262 260 260 259 257 254 253 252 251 250 249 248 247 246 245 244 243 243 243 243 241 241 239 237 236
330 331 330 326 320 316 311 308 305 301 295 289 284 278 274 272 270 269 267 264 263 262 260 257 256 255 254 252 251 250 249 248 247 246 244 244 243 244 243 243 240 239 239
337 337 336 332 329 324 319 315 311 307 302 296 291 285 280 276 274 272 271 269 266 265 264 261 259 258 256 255 254 253 252 250 249 247 245 245 244 244 244 244 242 240 240
342 341 338 335 332 330 326 321 317 314 309 304 298 292 288 283 279 276 275 273 270 267 266 264 262 259 258 257 256 254 253 252 250 250 248 246 246 245 245 244 243 241 241
338 338 335 332 330 329 327 323 320 316 312 309 305 299 295 291 286 283 280 276 273 269 267 266 265 263 260 259 258 256 254 253 251 250 249 248 247 246 245 245 244 243 242
333 334 333 332 329 327 325 322 319 318 315 313 310 304 300 297 292 288 284 280 276 273 271 268 267 266 264 262 260 258 256 255 252 251 250 250 249 247 247 246 245 244 242
329 329 330 330 329 328 327 324 320 318 316 313 311 307 303 300 297 292 288 284 280 277 274 272 269 267 266 264 262 259 257 257 255 253 251 251 250 249 247 246 246 245 244
327 327 327 328 327 326 326 325 323 320 317 315 313 310 307 304 300 296 292 289 285 281 278 276 273 269 266 265 264 262 260 258 257 254 253 252 251 250 249 247 246 245 244
324 325 325 325 325 325 325 324 323 321 319 318 315 312 310 308 305 301 296 293 289 286 283 280 276 272 268 266 264 263 261 260 258 256 254 253 252 250 249 248 246 245 243
321 321 321 321 321 322 323 323 322 320 319 318 317 313 311 309 307 305 302 298 294 291 288 284 279 275 272 270 267 265 264 262 260 258 256 254 253 252 250 249 247 245 245
317 318 318 319 319 320 321 322 321 320 319 317 316 314 313 310 309 307 305 301 298 295 291 287 283 279 275 273 271 269 266 263 261 259 257 256 254 252 251 250 248 246 245
313 315 315 315 316 316 318 319 319 318 317 317 317 315 314 312 310 308 306 302 300 298 295 291 286 282 278 276 274 272 270 267 264 262 260 258 256 254 251 250 249 247 246
310 311 311 313 314 314 315 316 316 316 316 316 316 315 314 313 312 310 307 304 302 299 296 293 290 286 282 280 277 275 273 269 266 264 262 259 256 255 253 251 249 248 246
307 309 309 310 311 312 314 314 315 315 316 315 315 316 315 314 313 311 309 307 304 302 299 296 292 290 287 284 280 278 275 272 268 265 262 260 257 255 254 252 250 249 247
Height
5876 5876 5876 5877 5877 5878 5879 5879 5880 5881 5882 5883 5884 5886 5887 5889 5890 5891 5893 5894 5896 5897 5898 5899 5900 5902 5904 5906 5908 5910 5911 5913 5914 5916 5917 5919 5920 5921 5922 5924 5925 5926 5926
5873 5873 5873 5873 5874 5875 5875 5876 5877 5878 5878 5879 5880 5881 5883 5885 5886 5887 5889 5891 5892 5893 5895 5896 5897 5899 5901 5903 5905 5907 5909 5911 5913 5914 5916 5917 5919 5920 5922 5923 5924 5925 5926
5870 5870 5870 5871 5871 5871 5872 5872 5873 5873 5874 5875 5876 5877 5879 5880 5882 5883 5885 5886 5888 5889 5891 5892 5894 5895 5897 5899 5901 5904 5906 5908 5910 5912 5914 5915 5917 5919 5920 5922 5923 5925 5926
5867 5867 5867 5868 5868 5868 5868 5868 5869 5870 5870 5871 5872 5873 5874 5875 5877 5879 5880 5882 5883 5885 5887 5888 5890 5892 5894 5896 5898 5900 5902 5904 5907 5909 5911 5913 5915 5916 5918 5920 5922 5923 5924
5864 5864 5864 5864 5864 5864 5865 5865 5865 5866 5866 5867 5868 5868 5869 5870 5872 5874 5876 5877 5879 5880 5882 5884 5885 5887 5889 5891 5893 5895 5898 5900 5902 5905 5907 5910 5912 5914 5916 5918 5919 5921 5923
5861 5860 5860 5860 5860 5861 5861 5861 5862 5862 5862 5863 5863 5864 5865 5866 5867 5869 5870 5872 5874 5875 5877 5879 5881 5882 5884 5886 5888 5890 5893 5895 5898 5901 5903 5906 5908 5910 5912 5914 5916 5918 5920
5857 5857 5858 5857 5857 5857 5857 5857 5857 5858 5858 5858 5859 5860 5860 5861 5862 5864 5865 5867 5868 5869 5871 5873 5875 5877 5879 5881 5883 5885 5887 5890 5892 5895 5898 5901 5904 5906 5908 5910 5913 5915 5917
5855 5854 5854 5854 5854 5853 5853 5853 5853 5853 5853 5854 5854 5855 5856 5857 5857 5858 5860 5861 5863 5864 5865 5867 5869 5871 5873 5875 5877 5880 5882 5884 5887 5889 5892 5895 5898 5901 5904 5906 5908 5911 5913
5852 5852 5851 5851 5850 5850 5850 5849 5849 5849 5849 5849 5849 5850 5851 5852 5852 5853 5854 5855 5857 5858 5859 5861 5863 5865 5867 5869 5871 5873 5876 5878 5881 5883 5886 5889 5892 5895 5898 5901 5903 5906 5908
5850 5849 5848 5848 5847 5846 5846 5846 5845 5845 5845 5845 5845 5845 5846 5846 5847 5848 5849 5849 5850 5852 5853 5855 5856 5858 5860 5862 5864 5866 5869 5872 5874 5877 5880 5882 5885 5888 5891 5895 5897 5900 5903
5848 5847 5846 5845 5844 5843 5842 5842 5841 5841 5840 5840 5840 5840 5840 5840 5841 5842 5842 5843 5844 5845 5847 5848 5849 5851 5853 5855 5857 5859 5862 5864 5867 5870 5873 5875 5878 5881 5884 5887 5890 5894 5897
5846 5845 5844 5842 5841 5840 5839 5838 5837 5837 5836 5835 5835 5835 5835 5835 5835 5836 5836 5837 5837 5838 5840 5841 5842 5844 5845 5847 5849 5851 5853 5856 5859 5862 5865 5867 5870 5873 5876 5879 5883 5886 5889
5844 5843 5841 5840 5839 5837 5836 5835 5834 5833 5832 5831 5830 5830 5830 5829 5830 5830 5830 5830 5831 5831 5832 5833 5834 5836 5837 5839 5841 5843 5845 5848 5850 5853 5856 5859 5862 5865 5868 5871 5874 5878 5881
5842 5841 5839 5838 5836 5835 5833 5832 5831 5829 5828 5827 5826 5825 5824 5824 5824 5824 5824 5824 5824 5824 5825 5826 5827 5828 5829 5831 5832 5834 5836 5838 5841 5844 5846 5850 5853 5856 5859 5862 5865 5869 5873
5840 5839 5837 5836 5834 5832 5831 5829 5827 5825 5824 5822 5821 5820 5819 5819 5818 5818 5817 5817 5817 5817 5817 5818 5818 5819 5821 5822 5823 5825 5827 5829 5831 5834 5836 5839 5843 5846 5849 5853 5856 5859 5863
5839 5837 5836 5834 5832 5830 5828 5826 5824 5822 5820 5818 5816 5815 5814 5813 5812 5812 5811 5810 5810 5810 5810 5810 5810 5811 5812 5813 5814 5816 5818 5820 5822 5824 5826 5829 5832 5836 5839 5842 5846 5849 5853
5837 5835 5833 5831 5829 5827 5825 5823 5820 5818 5816 5814 5812 5810 5809 5807 5806 5805 5804 5803 5803 5802 5802 5802 5801 5802 5803 5803 5805 5806 5808 5810 5812 5814 5816 5819 5822 5825 5828 5832 5835 5839 5843
5835 5833 5831 5829 5827 5824 5822 5819 5817 5815 5812 5810 5808 5806 5804 5802 5800 5799 5797 5796 5795 5795 5794 5794 5793 5793 5793 5794 5795 5796 5797 5799 5801 5804 5806 5808 5811 5814 5817 5820 5824 5828 5832
5833 5831 5829 5826 5824 5821 5819 5816 5813 5811 5808 5806 5803 5801 5798 5796 5794 5792 5790 5789 5788 5787 5786 5785 5784 5784 5783 5784 5784 5785 5787 5788 5790 5792 5795 5797 5800 5802 5805 5809 5812 5816 5820
5830 5828 5826 5824 5821 5818 5815 5812 5810 5807 5804 5801 5798 5795 5793 5790 5788 5786 5784 5782 5780 5779 5777 5776 5775 5774 5773 5773 5774 5775 5776 5777 5779 5781 5783 5785 5788 5790 5793 5797 5800 5804 5808
5828 5825 5823 5820 5817 5815 5812 5809 5806 5803 5799 5796 5793 5790 5787 5785 5782 5779 5777 5775 5772 5770 5768 5767 5765 5764 5764 5763 5763 5764 5764 5765 5767 5768 5770 5773 5775 5778 5780 5783 5786 5790 5795
5824 5822 5819 5816 5814 5811 5808 5805 5801 5798 5795 5792 5788 5785 5782 5779 5776 5773 5770 5767 5765 5762 5760 5758 5756 5755 5754 5753 5753 5753 5753 5754 5755 5756 5757 5759 5761 5764 5766 5770 5773 5777 5781
5820 5818 5815 5812 5810 5807 5804 5800 5797 5793 5790 5786 5783 5779 5776 5773 5769 5766 5763 5760 5757 5754 5751 5749 5747 5745 5744 5743 5742 5742 5741 5741 5742 5743 5744 5746 5747 5750 5752 5755 5759 5763 5767
5816 5813 5811 5808 5805 5802 5799 5796 5792 5788 5785 5781 5778 5774 5770 5766 5763 5759 5755 5752 5749 5746 5743 5740 5738 5735 5734 5732 5731 5730 5729 5729 5730 5730 5730 5732 5734 5736 5738 5741 5745 5749 5753
5811 5809 5806 5803 5800 5797 5794 5790 5787 5783 5779 5775 5772 5768 5764 5760 5756 5752 5748 5745 5741 5738 5734 5732 5729 5726 5724 5722 5720 5719 5718 5718 5718 5717 5717 5718 5720 5721 5724 5727 5730 5734 5738
5806 5803 5801 5798 5794 5791 5788 5785 5781 5777 5773 5770 5766 5761 5757 5753 5749 5745 5741 5737 5733 5729 5726 5723 5720 5717 5714 5712 5710 5708 5707 5706 5706 5706 5705 5706 5707 5708 5711 5714 5717 5720 5724